Location: Beang
(6.6177°N, 10.9863°W)
Time: 23:29:49
(UTC+00:00)

Cosmos 468 - Pass Details

Date: 07 June 2020
Orbit: 762 x 783 km, 74.0° (Epoch: 10 July)

Event Time Altitude Azimuth Distance (km) Brightness Sun altitude
Exits shadow 05:33:35 - 195° (SSW) 2,792 7.0 -13.2°
Reaches altitude 10° 05:34:46 10° 196° (SSW) 2,332 6.6 -12.9°
Maximum altitude 05:40:04 80° 282° (WNW) 796 4.5 -11.7°
Drops below altitude 10° 05:45:22 10° 9° (N) 2,327 7.5 -10.5°
Sets 05:47:45 0° 11° (N) 3,252 8.3 -10.0°
